Location: Blankensee
(53.5126°N, 14.3055°E)
Time: 17:35:23
(UTC+00:00)

CZ-4C R/B - Pass Details

Date: 08 August 2020
Orbit: 465 x 635 km, 98.0° (Epoch: 19 September)

Event Time Altitude Azimuth Distance (km) Brightness Sun altitude
Exits shadow 01:00:07 39° 208° (SSW) 720 3.4 -16.4°
Maximum altitude 01:01:03 53° 259° (W) 592 3.2 -16.4°
Drops below altitude 10° 01:04:33 10° 337° (NNW) 1,674 6.3 -16.1°
Sets 01:06:42 0° 342° (NNW) 2,580 7.4 -16.0°
